[[{"header":{"parameterUnit":"m.s-1","parameterCategory":1,"la1":30.2991,"la2":30.254,"lo1":-89.0895,"lo2":-89.0444,"dy":0.0017,"dx":0.0017,"nx":28,"ny":28,"refTime":"2024-05-16T09:00:00:Z","depth":0,"parameterNumber":2,"parameterNumberName":"U-component_of_WINDS"},"data":[0,0,0,0,0,0,0,0,0,0,0,0,0,0,0,0,0,0,0,0,0,0,0,0,0,0,0,0,0,0,0,0,0,0,0,0,0,0,0,0,0,0,0,0,0,0,0,0,0,0,0,0,0,0,0,0,0,0,0.2858,0.2858,0,0.2829,0.2829,0.2828,0.275,0.2748,0.2747,0.2745,0.2718,0.2719,0.272,0,0,0,0,0,0,0,0,0,0,0,0,0,0.2849,0.285,0.2858,0.2858,0.2857,0.2829,0.2829,0.2828,0.275,0.2748,0.2746,0.2744,0.2718,0.2719,0.272,0,0,0,0,0,0,0,0,0,0,0,0,0,0.284,0.285,0.2858,0.2815,0.2811,0.2829,0.2829,0.2828,0.2751,0.2748,0.2746,0.2743,0.2717,0.2719,0.272,0.2779,0,0,0.2724,0.2725,0,0,0,0,0,0,0,0,0.2841,0.284,0.2822,0.2818,0.2813,0.279,0.2815,0.2812,0.2751,0.2774,0.2745,0.2742,0.2744,0.2743,0.2743,0.2777,0.2776,0.2724,0.2725,0.2725,0.2726,0,0,0,0,0,0,0,0.2841,0.2841,0.2847,0.2822,0.2816,0.2798,0.2794,0.2814,0.2774,0.2771,0.2766,0.2763,0.2742,0.2742,0.2742,0.2776,0.2724,0.2725,0.2726,0.2726,0.2857,0.2859,0,0,0,0,0,0,0.2848,0.2842,0.2848,0.2846,0.2821,0.28,0.2796,0.28,0.2773,0.2767,0.2765,0.276,0.2741,0.2741,0.2741,0.2808,0.2725,0.2727,0.2727,0.2854,0.2857,0.286,0,0,0,0,0,0,0.2848,0.2849,0.2849,0.2842,0.2841,0.2803,0.2809,0.2801,0.2802,0.2769,0.2761,0.2773,0.2739,0.2739,0.277,0.2806,0.2727,0.2728,0.2851,0.2855,0.2859,0.2943,0,0,0,0,0,0,0.2848,0.2849,0.2871,0.2843,0.2842,0.2877,0.2811,0.2802,0.2804,0.2796,0.2774,0.2768,0.2737,0.2768,0.2771,0.2806,0.2729,0.2847,0.2853,0.2857,0.2936,0.2949,0.296,0,0,0,0,0,0.2848,0.2896,0.2872,0.2873,0.2867,0.288,0.2879,0.2841,0.2807,0.2829,0.2807,0.2769,0.2802,0.2772,0.2774,0.2811,0.2845,0.2851,0.2857,0.2931,0.2947,0.296,0,0,0,0,0,0,0.293,0.2892,0.2865,0.2905,0.2896,0.2866,0.2892,0.2859,0.286,0.2853,0.2807,0.2803,0.284,0.2828,0.2796,0.2866,0.2817,0.2824,0.2873,0.2887,0.2898,0.2901,0.273,0,0,0,0,0,0.2952,0.2964,0.2931,0.297,0.2967,0.2931,0.2935,0.2907,0.2896,0.2892,0.2872,0.2864,0.2872,0.2879,0.2885,0.2934,0.2929,0.2961,0.2972,0.2982,0.2989,0.3014,0.3028,0.288,0.288,0.288,0,0,0.2999,0.298,0.2991,0.2986,0.2976,0.299,0.2928,0.2946,0.2957,0.2895,0.2922,0.2908,0.2896,0.2936,0.2953,0.2927,0.3028,0.299,0.2998,0.2999,0.3022,0.3036,0.3049,0.2884,0.2883,0.2883,0,0,0.3093,0.3079,0.311,0.3101,0.3085,0.3061,0.3069,0.3044,0.3032,0.3058,0.3012,0.3025,0.304,0.3033,0.3032,0.3123,0.3088,0.3126,0.3187,0.3213,0.3224,0.3235,0.3267,0.328,0.3132,0.3133,0.3133,0,0.3153,0.3173,0.3131,0.3152,0.3151,0.3095,0.3127,0.312,0.3108,0.3109,0.3081,0.3099,0.3086,0.3125,0.3147,0.3147,0.3155,0.3128,0.3226,0.3236,0.3245,0.3275,0.3288,0.3137,0.3137,0.3136,0.3136,0,0.3248,0.3262,0.329,0.3278,0.3281,0.3307,0.327,0.3278,0.325,0.3229,0.3257,0.3241,0.3242,0.3249,0.3222,0.3284,0.3269,0.3234,0.3183,0.3264,0.3292,0.3304,0.3144,0.3143,0.3141,0.314,0,0,0.3392,0.3357,0.3368,0.3362,0.3341,0.3352,0.3376,0.3377,0.3384,0.3378,0.3398,0.3412,0.3379,0.3378,0.335,0.3373,0.3446,0.3335,0.3334,0.3356,0.3514,0.354,0.3555,0.3423,0.3425,0.3426,0.3515,0,0.348,0.3518,0.3482,0.3528,0.3541,0.3487,0.3509,0.3499,0.348,0.3489,0.3468,0.3479,0.3435,0.3434,0.3454,0.3433,0.3477,0.3426,0.3442,0.3443,0.3447,0.3569,0.3597,0.3681,0.3526,0.3527,0.3529,0,0.3588,0.3586,0.3633,0.3609,0.3613,0.3633,0.363,0.3639,0.3627,0.3612,0.361,0.3576,0.3599,0.355,0.3581,0.3547,0.3552,0.3543,0.3545,0.3545,0.3491,0.3573,0.3707,0.372,0.3546,0.3544,0.3543,0,0.3689,0.3698,0.3727,0.3724,0.3696,0.3712,0.3701,0.3686,0.3689,0.3688,0.3689,0.3691,0.3692,0.3694,0.3662,0.3629,0.3698,0.3646,0.3687,0.3688,0.3704,0.3703,0.3841,0.3706,0.3706,0.3706,0.3705,0,0.3791,0.3822,0.3772,0.379,0.3823,0.3781,0.3816,0.38,0.3787,0.3802,0.3757,0.3772,0.3728,0.3739,0.3713,0.3744,0.3744,0.3733,0.3726,0.3738,0.3739,0.374,0.3733,0.3709,0.3708,0.3708,0.3707,0,0.3909,0.3877,0.3905,0.3877,0.3871,0.3897,0.3873,0.3889,0.3867,0.3886,0.3889,0.3855,0.3865,0.3832,0.3838,0.3821,0.3865,0.3849,0.3869,0.3864,0.3907,0.3904,0.405,0.4068,0.3922,0.3923,0.3925,0,0.3977,0.3999,0.3973,0.3979,0.3971,0.3982,0.3984,0.3944,0.3949,0.3937,0.3955,0.3961,0.3964,0.3983,0.396,0.3964,0.3947,0.3998,0.3947,0.3958,0.3948,0.3947,0.395,0.4009,0.4011,0.4012,0.4013,0,0.41,0.4083,0.4087,0.4087,0.4091,0.4089,0.4083,0.4092,0.4048,0.4056,0.4066,0.4068,0.4073,0.408,0.4079,0.407,0.4035,0.4029,0.4039,0.4051,0.4062,0.4057,0.3898,0.4026,0.4025,0.4024,0.4023,0.4023,0.4195,0.4212,0.4197,0.4204,0.4196,0.4192,0.4206,0.4185,0.4192,0.4193,0.4169,0.4183,0.4171,0.4166,0.416,0.4172,0.4148,0.4162,0.4166,0.417,0.4177,0.406,0.4171,0.4171,0.4171,0.417,0.417,0,0.4316,0.4303,0.431,0.4304,0.431,0.4275,0.4268,0.4275,0.4289,0.428,0.4283,0.4295,0.4302,0.4279,0.4283,0.4297,0.4281,0.4299,0.4298,0.4296,0.4198,0.4189,0.4312,0.4312,0.4312,0.4312,0.4312,0.4312,0.438,0.4408,0.4389,0.4413,0.44,0.4413,0.4412,0.4409,0.4401,0.4416,0.4421,0.4406,0.4392,0.4394,0.4399,0.4392,0.4396,0.442,0.4408,0.4317,0.4303,0.429,0.4281,0.4421,0.4421,0.4505,0.4506,0.4506]},{"header":{"parameterUnit":"m.s-1","parameterCategory":1,"la1":30.2991,"la2":30.254,"lo1":-89.0895,"lo2":-89.0444,"dy":0.0017,"dx":0.0017,"nx":28,"ny":28,"refTime":"2024-05-16T09:00:00:Z","depth":0,"parameterNumber":3,"parameterNumberName":"V-component_of_WINDS"},"data":[0,0,0,0,0,0,0,0,0,0,0,0,0,0,0,0,0,0,0,0,0,0,0,0,0,0,0,0,0,0,0,0,0,0,0,0,0,0,0,0,0,0,0,0,0,0,0,0,0,0,0,0,0,0,0,0,0,0,6.1914,6.1916,0,6.2018,6.2019,6.202,6.1992,6.199,6.1988,6.1986,6.2087,6.2091,6.2096,0,0,0,0,0,0,0,0,0,0,0,0,0,6.1688,6.1693,6.1914,6.1916,6.1917,6.2017,6.2019,6.202,6.1992,6.199,6.1987,6.1985,6.2085,6.2091,6.2096,0,0,0,0,0,0,0,0,0,0,0,0,0,6.1788,6.1694,6.1914,6.1915,6.1916,6.2017,6.2019,6.2021,6.1993,6.199,6.1987,6.1984,6.2083,6.209,6.2097,6.2201,0,0,6.2118,6.2121,0,0,0,0,0,0,0,0,6.1783,6.1797,6.1914,6.1915,6.1917,6.1989,6.1976,6.2081,6.1994,6.1964,6.1986,6.1982,6.2056,6.2065,6.2091,6.2206,6.221,6.2118,6.2123,6.2126,6.2128,0,0,0,0,0,0,0,6.1776,6.1792,6.1955,6.1916,6.1917,6.1909,6.192,6.1996,6.2026,6.1966,6.1964,6.1977,6.2056,6.2085,6.2093,6.2212,6.2118,6.2124,6.2129,6.2131,6.2417,6.242,0,0,0,0,0,0,6.1768,6.1786,6.1952,6.1958,6.1841,6.1916,6.1928,6.1969,6.2025,6.2031,6.198,6.1976,6.2074,6.2085,6.2097,6.2223,6.2126,6.2132,6.2136,6.2414,6.2418,6.2422,0,0,0,0,0,0,6.1764,6.1783,6.1948,6.1872,6.1892,6.1923,6.1969,6.1972,6.2001,6.2035,6.204,6.2003,6.2072,6.2087,6.2176,6.2226,6.2135,6.2141,6.241,6.2415,6.242,6.2476,0,0,0,0,0,0,6.1757,6.1782,6.1823,6.1873,6.1896,6.2027,6.1972,6.1977,6.2013,6.2009,6.2059,6.2064,6.2071,6.2166,6.2183,6.2234,6.2147,6.2405,6.2412,6.2418,6.247,6.2482,6.2493,0,0,0,0,0,6.1749,6.1834,6.1825,6.1845,6.1949,6.2029,6.2043,6.205,6.2017,6.2058,6.2081,6.2062,6.2218,6.2175,6.2194,6.2248,6.2402,6.241,6.2418,6.2464,6.248,6.2493,0,0,0,0,0,0,6.1786,6.184,6.1831,6.1935,6.1978,6.2025,6.2076,6.2066,6.2119,6.2112,6.2118,6.2129,6.222,6.2243,6.2194,6.2352,6.2305,6.2317,6.2334,6.2349,6.236,6.2353,6.2153,0,0,0,0,0,6.1807,6.187,6.1913,6.1999,6.2022,6.2046,6.2081,6.2084,6.2128,6.2145,6.2174,6.2216,6.2275,6.2313,6.2368,6.2473,6.2483,6.2519,6.2531,6.254,6.255,6.2607,6.2624,6.2447,6.2447,6.2447,0,0,6.1849,6.1886,6.1925,6.2008,6.2042,6.2105,6.2061,6.213,6.2177,6.2155,6.2242,6.2264,6.2311,6.2409,6.2453,6.243,6.2601,6.255,6.2557,6.2563,6.2617,6.2633,6.2648,6.2452,6.2451,6.245,0,0,6.1959,6.1994,6.2071,6.2106,6.2158,6.2174,6.2192,6.2241,6.2255,6.2342,6.2328,6.2382,6.2483,6.2518,6.2548,6.2672,6.2657,6.269,6.2751,6.2806,6.282,6.2833,6.2877,6.2892,6.27,6.27,6.27,0,6.2005,6.2102,6.2111,6.2182,6.2218,6.2203,6.228,6.2313,6.238,6.2405,6.2379,6.2505,6.2536,6.2641,6.2672,6.2697,6.2717,6.2684,6.2818,6.283,6.2842,6.2884,6.2901,6.2704,6.2703,6.2703,6.2702,0,6.2156,6.2223,6.2278,6.2346,6.2388,6.2462,6.248,6.2522,6.252,6.2538,6.2626,6.2663,6.2726,6.2751,6.275,6.2856,6.284,6.2816,6.2769,6.2862,6.2902,6.2918,6.2709,6.2707,6.2706,6.2705,0,0,6.2292,6.2364,6.2384,6.2415,6.2472,6.2523,6.2595,6.2659,6.2694,6.2741,6.2801,6.2887,6.2865,6.29,6.2902,6.2951,6.3047,6.2921,6.2922,6.2943,6.3166,6.3184,6.3203,6.3037,6.304,6.3043,6.3162,0,6.2407,6.2537,6.2546,6.2662,6.2725,6.2712,6.2774,6.2815,6.2834,6.2888,6.2907,6.2968,6.2935,6.2956,6.3003,6.3025,6.3091,6.3016,6.3092,6.3095,6.3081,6.3223,6.3243,6.3353,6.3177,6.318,6.3182,0,6.2559,6.2612,6.2735,6.2784,6.281,6.2867,6.2926,6.2978,6.3024,6.3034,6.3073,6.3069,6.3142,6.3093,6.3192,6.3141,6.3173,6.3188,6.3192,6.32,6.3144,6.3234,6.3389,6.3405,6.3207,6.3205,6.3203,0,6.2646,6.2749,6.2836,6.2862,6.2921,6.2961,6.2987,6.303,6.3068,6.3119,6.3143,6.3201,6.3233,6.3277,6.3288,6.3251,6.3388,6.3339,6.3397,6.3397,6.3426,6.3424,6.3588,6.3447,6.3446,6.3446,6.3446,0,6.2774,6.285,6.2876,6.2929,6.3013,6.3023,6.3106,6.3129,6.3167,6.3224,6.3215,6.3268,6.328,6.3335,6.3344,6.3425,6.3439,6.3448,6.345,6.3449,6.3448,6.347,6.3462,6.3451,6.345,6.3449,6.3448,0,6.2886,6.2907,6.3001,6.3049,6.3063,6.3123,6.3164,6.3215,6.3232,6.3304,6.3321,6.3348,6.3412,6.3428,6.3504,6.3509,6.3606,6.36,6.3591,6.3591,6.3648,6.3642,6.3831,6.3856,6.3699,6.37,6.3701,0,6.2966,6.3025,6.308,6.3119,6.3147,6.3208,6.3247,6.3259,6.3299,6.3356,6.34,6.3463,6.3515,6.3618,6.3643,6.3701,6.3696,6.3758,6.3705,6.3703,6.3697,6.3694,6.3699,6.3769,6.377,6.3772,6.3773,0,6.3107,6.3114,6.3172,6.3233,6.328,6.3328,6.3374,6.3405,6.3423,6.3469,6.3535,6.3576,6.3654,6.3717,6.3775,6.38,6.379,6.379,6.3806,6.3806,6.3799,6.3804,6.3619,6.3785,6.3784,6.3783,6.3782,6.3782,6.3206,6.3257,6.3304,6.3368,6.3405,6.3448,6.3498,6.3523,6.3579,6.3645,6.3648,6.372,6.3764,6.3842,6.387,6.3926,6.3907,6.393,6.3936,6.3942,6.3947,6.379,6.3936,6.3936,6.3936,6.3935,6.3935,0,6.3346,6.3376,6.3435,6.3501,6.3551,6.3538,6.3588,6.363,6.3695,6.3737,6.3789,6.3865,6.3926,6.3957,6.4017,6.4055,6.4052,6.4071,6.4068,6.4074,6.3961,6.3941,6.4073,6.4073,6.4073,6.4073,6.4073,6.4073,6.3425,6.3511,6.3524,6.3628,6.3657,6.373,6.3759,6.3799,6.3833,6.3919,6.3971,6.3991,6.4028,6.4091,6.4146,6.4153,6.4176,6.4197,6.4202,6.4096,6.4082,6.4068,6.405,6.4202,6.4202,6.431,6.4311,6.4312]}]]